Regional Weather Roundup
Issued by NWS

Home | Current Version | Previous Version | Text Only | Print | Product List | Glossary Off
Versions: 1 2 3 4 5 6 7 8 9 10 11 12 13 14 15 16 17 18 19 20 21 22 23 24 25 26 27 28 29 30 31 32 33 34 35 36 37 38 39 40 41 42 43 44 45 46 47 48 49 50

000
ASUS43 KLOT 201504
RWRIL

ILLINOIS REGIONAL WEATHER ROUNDUP
NATIONAL WEATHER SERVICE CHICAGO/ROMEOVILLE IL
1000 AM CDT FRI OCT 20 2017

NOTE: "FAIR" INDICATES FEW OR NO CLOUDS BELOW 12,000 FEET WITH NO
SIGNIFICANT WEATHER AND/OR OBSTRUCTIONS TO VISIBILITY.

* THESE STATIONS ARE NOT UNDER NWS QUALITY CONTROL. THEY ALSO MAY NOT
  REPORT WEATHER SUCH AS PRECIPITATION OR FOG.

ILZ001-002-007-009-015-016-024-201600-
NORTHWEST ILLINOIS

CITY           SKY/WX    TMP DP  RH WIND       PRES   REMARKS
MOLINE         SUNNY     66  52  60 S9        30.13S
STERLING*      SUNNY     64  53  67 VRB5        N/A
SAVANNA*       SUNNY     63  52  67 S7        30.13F
$$

ILZ003-004-008-010-011-017-018-201600-
NORTH CENTRAL ILLINOIS

CITY           SKY/WX    TMP DP  RH WIND       PRES   REMARKS
ROCKFORD       MOSUNNY   63  51  65 S10       30.16S
FREEPORT*      SUNNY     63  51  65 S10       30.16S
ROCHELLE*      SUNNY     65  51  61 SW7       30.17S
DE KALB*       SUNNY     63  52  66 SW10      30.17F
$$

ILZ005-006-012>014-019>023-201600-
NORTHEAST ILLINOIS

CITY           SKY/WX    TMP DP  RH WIND       PRES   REMARKS
CHICAGO-OHARE  MOSUNNY   65  50  58 SW9       30.17S
CHICAGO-MIDWAY MOSUNNY   66  51  58 SW10      30.18F
AURORA         SUNNY     62  52  69 S8        30.18F
LANSING*       SUNNY     64  55  71 S8        30.20F
JOLIET*        SUNNY     65  54  66 S7        30.19S
WAUKEGAN       SUNNY     64  52  64 SW9       30.15S
DUPAGE AIRPORT SUNNY     63  53  70 S8        30.17F
KANKAKEE*      SUNNY     64  53  66 SW9       30.22S
WHEELING       SUNNY     66  53  63 SW7       30.18F
MORRIS*        SUNNY     65  52  64 S10       30.18S
NORTHERLY ISL    N/A     65  48  54 S7          N/A
$$

LMZ740>746-201600-
SOUTHERN LAKE MICHIGAN

STATION/POSITION SKY/WX   TEMP    WIND        PRES    VSBY  WAVE
                          AIR SEA DIR/SP/G                  HT/PER
                          (F)     (DEG/KT/KT) (MB)    (MI)  (FT/S)
SOUTHERN BUOY              62 61  180/ 14/ 16 1021.6          2/ 4
WILMETTE HARBOR            61 58  220/ 10/ 12   N/A           2/ 3
HARRISON CRIB              63     200/ 17/ 18   N/A
BURNHAM HARBOR             63     280/  4/  8   N/A
CALUMET HARBOR             61     190/  6/ 10 1021.6
BURNS HARBOR               60     180/ 12/ 16 1023.0
MICHIGAN CITY              61     160/ 11/ 16   N/A
MICHIGAN CITY 6N           60 58  190/  8/ 12   N/A           1/ 2
ST. JOSEPH                 60 58  180/  8/ 10 1023.1F         1/ 3
$$

ILZ025>027-034>036-040-047-049-050-058-095>099-201600-
WEST-CENTRAL ILLINOIS

CITY           SKY/WX    TMP DP  RH WIND       PRES   REMARKS
GALESBURG*     SUNNY     71  62  72 S6        30.17F
MACOMB*        SUNNY     65  52  61 SW6       30.18F
JACKSONVILLE*  SUNNY     65  53  64 S8        30.20R
PITTSFIELD*    SUNNY     65  55  70 S7        30.19F
$$

ILZ028>032-037-038-041>044-048-051>054-059>061-201600-
CENTRAL ILLINOIS

CITY           SKY/WX    TMP DP  RH WIND       PRES   REMARKS
PONTIAC        SUNNY     66  55  68 S7        30.21S
BLOOMINGTON    SUNNY     64  54  69 S12       30.21S
DECATUR        SUNNY     64  53  67 S9        30.23S
PEORIA         SUNNY     62  54  74 SW7       30.19S
LACON*         SUNNY     63  52  67 S8        30.18S
LINCOLN*       SUNNY     64  54  71 SW5       30.21S
SPRINGFIELD    SUNNY     66  54  65 SW7       30.20F
TAYLORVILLE    SUNNY     64  53  66 S7        30.23S
$$

ILZ033-039-045-046-055>057-062-063-201600-
EAST-CENTRAL ILLINOIS

CITY           SKY/WX    TMP DP  RH WIND       PRES   REMARKS
CHAMPAIGN      SUNNY     67  53  61 S12       30.24S
DANVILLE*      SUNNY     64  53  65 S8        30.23S
MATTOON        SUNNY     64  55  72 S6        30.24F
PARIS*         SUNNY     66  55  66 S7        30.26F
$$

ILZ079-100>102-201600-
SOUTHWEST ILLINOIS

CITY           SKY/WX    TMP DP  RH WIND       PRES   REMARKS
ALTON          PTSUNNY   61  55  82 S6        30.23S
CAHOKIA*       CLOUDY    65  53  65 S6        30.23S
SPARTA*        SUNNY     61  52  72 S5        30.26R
$$

ILZ064>066-069>071-074>076-080>082-084>086-088>090-092>094-201600-
SOUTH-CENTRAL ILLINOIS

CITY           SKY/WX    TMP DP  RH WIND       PRES   REMARKS
CARBONDALE     SUNNY     63  56  78 S3        30.26R
EFFINGHAM*     SUNNY     64  54  70 S5        30.27R
MARION         SUNNY     63  55  77 S9        30.27S
MT. VERNON     SUNNY     65  56  72 SW7       30.27R
CENTRALIA*     SUNNY     66  54  65 S9        30.25S
SALEM*         SUNNY     67  53  59 S6        30.25S
METROPOLIS*    SUNNY     62  55  77 S3        30.29R
$$

ILZ067-068-072-073-078-083-087-091-201600-
SOUTHEAST ILLINOIS

CITY           SKY/WX    TMP DP  RH WIND       PRES   REMARKS
LAWRENCEVILLE  SUNNY     63  55  75 S6        30.28S
FLORA*         SUNNY     64  55  73 S3        30.27R
FAIRFIELD*     SUNNY     63  54  73 S3        30.26S
ROBINSON*      SUNNY     63  54  70 S3        30.27F
CARMI*         SUNNY     63  54  74 S5        30.27F
$$

ABBREVIATIONS USED IN REMARKS
   TC - TEMPERATURE IN CELSIUS
  WCI - WIND CHILL INDEX
   HX - HEAT INDEX
  VSB - VISIBILITY
$$





USA.gov is the U.S. government's official web portal to all federal, state and local government web resources and services.